Houlton, ME

11:46 AM EST on December 15, 2017 (GMT -0500)
Houlton International

Weather History for KHUL - April, 2013

Change the Weather History Date:

Friday, April 26, 2013

  Actual Average Record
Temperature  
Mean Temperature 42 °F 44 °F  
Max Temperature 59 °F 56 °F 76 °F (1982)
Min Temperature 24 °F 32 °F 17 °F (1972)
Degree Days  
Heating Degree Days 23 21  
Month to date heating degree days 731 697  
Since 1 July heating degree days 7911 8493  
Cooling Degree Days 0 0  
Month to date cooling degree days 0 0  
Year to date cooling degree days 0 0  
Moisture  
Dew Point 24 °F    
Average Humidity 62    
Maximum Humidity 100    
Minimum Humidity 23    
Precipitation  
Precipitation 0.00 in 0.13 in 1.00 in (1951)
Month to date precipitation 1.35 3.33  
Year to date precipitation 5.52 10.78  
Sea Level Pressure  
Sea Level Pressure 30.40 in    
Wind  
Wind Speed 4 mph (ENE)    
Max Wind Speed 12 mph    
Max Gust Speed 21 mph    
Visibility 10 miles    
Events      
T = Trace of Precipitation, MM = Missing Value Source: NWS Daily Summary

Daily Weather History Graph

Daily Weather History Graph

Search for Another Location

Airport or City:

Trip Planner

Search our weather history database for the weather conditions in past years. The results will help you decide how hot, cold, wet, or windy it might be!

Date:

Astronomy

Apr. 26, 2013 Rise Set
Actual Time 5:25 AM EDT 7:33 PM EDT
Civil Twilight 4:52 AM EDT 8:05 PM EDT
Nautical Twilight 4:12 AM EDT 8:46 PM EDT
Astronomical Twilight 3:27 AM EDT 9:31 PM EDT
Moon 8:56 PM EDT (4/26) 5:47 AM EDT (4/26)
Length of Visible Light 15h 13m
Length of Day
14h 07m
Full, 99% of the Moon is Illuminated
Apr 26
Full
May 2
Last Quarter
May 9
New
May 18
First Quarter
May 25
Full

Hourly Weather History & Observations

Time (EDT) Temp. Windchill Dew Point Humidity Pressure Visibility Wind Dir Wind Speed Gust Speed Precip Events Conditions
12:53 AM 30.0 °F - 27.0 °F 88% 30.31 in 10.0 mi Calm Calm - N/A   Clear
1:53 AM 27.0 °F - 26.1 °F 96% 30.33 in 10.0 mi Calm Calm - N/A   Clear
2:53 AM 26.6 °F - 26.6 °F 100% 30.33 in 10.0 mi Calm Calm - N/A   Clear
3:53 AM 27.0 °F - 25.0 °F 92% 30.38 in 10.0 mi Calm Calm - N/A   Clear
4:53 AM 26.1 °F - 25.0 °F 96% 30.40 in 10.0 mi Calm Calm - N/A   Clear
5:53 AM 26.1 °F - 23.0 °F 88% 30.42 in 10.0 mi Calm Calm - N/A   Clear
6:53 AM 30.9 °F - 28.0 °F 89% 30.44 in 10.0 mi Calm Calm - N/A   Clear
7:53 AM 37.0 °F 32.4 °F 28.0 °F 70% 30.45 in 10.0 mi NNE 5.8 mph - N/A   Clear
8:53 AM 43.0 °F 39.5 °F 26.1 °F 51% 30.45 in 10.0 mi NNE 5.8 mph - N/A   Clear
9:53 AM 46.9 °F - 24.1 °F 41% 30.45 in 10.0 mi Variable 6.9 mph - N/A   Clear
10:53 AM 48.9 °F - 23.0 °F 36% 30.45 in 10.0 mi Variable 5.8 mph - N/A   Clear
11:53 AM 51.1 °F - 23.0 °F 33% 30.43 in 10.0 mi ESE 3.5 mph - N/A   Clear
12:53 PM 53.1 °F - 21.9 °F 30% 30.43 in 10.0 mi ESE 4.6 mph - N/A   Clear
1:53 PM 55.0 °F - 23.0 °F 29% 30.41 in 10.0 mi Variable 5.8 mph - N/A   Clear
2:53 PM 57.0 °F - 21.0 °F 25% 30.39 in 10.0 mi NNE 6.9 mph - N/A   Clear
3:53 PM 59.0 °F - 21.9 °F 24% 30.38 in 10.0 mi ENE 6.9 mph - N/A   Clear
4:53 PM 57.9 °F - 19.9 °F 23% 30.37 in 10.0 mi East 5.8 mph - N/A   Clear
5:53 PM 57.9 °F - 19.0 °F 22% 30.37 in 10.0 mi Calm Calm - N/A   Clear
6:53 PM 55.9 °F - 19.0 °F 24% 30.38 in 10.0 mi ENE 3.5 mph - N/A   Clear
7:53 PM 48.0 °F - 25.0 °F 41% 30.39 in 10.0 mi East 3.5 mph - N/A   Mostly Cloudy
8:53 PM 48.9 °F - 25.0 °F 39% 30.41 in 10.0 mi ESE 10.4 mph - N/A   Clear
9:53 PM 46.0 °F 41.4 °F 27.0 °F 47% 30.43 in 10.0 mi ESE 9.2 mph - N/A   Clear
10:53 PM 42.1 °F - 26.1 °F 53% 30.43 in 10.0 mi Calm Calm - N/A   Clear
11:53 PM 36.0 °F - 26.1 °F 67% 30.43 in 10.0 mi Calm Calm - N/A   Clear